#timestamp,LO_Frequency,Hit,StdDev 
1553428815.5,286046996.5,N
1553428835.3,286046996.9,N
1553428855.2,286047000.8,N
1553428875.0,286046998.7,N
1553428875.9,286046998.7,N
1553428895.8,286047002.5,N
1553428915.6,286047000.0,N
1553428935.4,286047002.7,N
1553428955.3,286047000.4,N
1553428975.1,286046998.3,N
1553428995.9,286046998.7,N
1553429015.7,286046998.2,N
1553429035.5,286047002.4,N
1553429055.4,286046999.6,N
1553429075.2,286046997.3,N
1553429095.0,286046997.3,N
1553429095.9,286046997.3,N
1553429115.8,286046999.6,N
1553429135.6,286046997.9,N
1553429155.4,286046996.5,N
1553429175.3,286046997.2,N
1553429195.1,286046995.3,N
1553429215.9,286046997.1,N
1553429235.7,286046996.8,N
1553429255.5,286046997.4,N
1553429275.4,286046997.3,N
1553429295.2,286046998.6,N
1553429315.1,286046999.9,N
1553429316.0,286046999.9,N
1553429335.8,286047000.9,N
1553429355.6,286047001.2,N
1553429375.5,286047000.8,N
1553429395.3,286046998.8,N
1553429415.1,286046999.4,N
1553429435.9,286046996.8,N
1553429455.7,286046995.1,N
1553429475.6,286046995.3,N
1553429495.4,286046997.8,N
1553429515.2,286046996.9,N
1553429535.1,286047000.3,N
1553429536.0,286047000.3,N
1553429555.8,286047002.0,N
1553429575.7,286047002.4,N
1553429595.5,286047001.3,N
1553429615.3,286047001.9,N
1553429635.2,286047000.7,N
1553429655.0,286047000.6,N
1553429655.9,286047000.6,N
1553429675.8,286046999.9,N
1553429695.6,286046999.2,N
1553429715.4,286046998.5,N
1553429735.3,286047000.9,N
1553429755.1,286047001.3,N
1553429756.0,286047001.3,N
1553429775.8,286047003.9,N
1553429795.7,286047004.0,N
1553429815.5,286047005.1,N
1553429835.4,286047004.2,N
1553429855.2,286047001.7,N
1553429875.0,286047001.7,N
1553429875.9,286047001.7,N
1553429895.8,286047002.3,N
1553429915.6,286047002.3,N
1553429935.4,286047002.0,N
1553429955.3,286047001.9,N
1553429975.1,286047001.6,N
1553429995.9,286047000.2,N
1553430015.7,286047001.9,N
1553430035.5,286047001.8,N
1553430055.4,286047002.3,N
1553430075.2,286047001.3,N
1553430095.0,286047004.1,N
1553430095.9,286047004.1,N
1553430115.8,286046999.8,N
1553430135.6,286047000.0,N
1553430155.4,286047001.0,N
1553430175.3,286047002.0,N
1553430195.1,286047001.6,N
1553430215.9,286047002.4,N
1553430235.7,286047000.0,N
1553430255.5,286046999.0,N
1553430275.4,286046998.2,N
1553430295.2,286047000.9,N
1553430315.1,286047000.0,N
1553430316.0,286047000.0,N
1553430335.8,286046999.9,N
1553430355.6,286046999.7,N
1553430375.5,286047002.4,N
1553430395.3,286047000.9,N
1553430415.2,286047001.1,N
1553430435.9,286047001.0,N
1553430455.7,286047000.5,N
1553430475.6,286046999.0,N
1553430495.4,286046998.7,N
1553430515.2,286046998.5,N
1553430535.1,286046999.3,N
1553430536.0,286046999.3,N
1553430555.8,286046999.4,N
1553430575.7,286046998.4,N
1553430595.5,286046996.8,N
1553430615.3,286046997.5,N
1553430635.2,286046997.0,N
1553430655.0,286046999.3,N
1553430655.9,286046999.3,N
1553430675.8,286046996.5,N
1553430695.6,286046996.9,N
1553430715.4,286046997.1,N
1553430735.3,286046999.1,N
1553430755.1,286046999.6,N
1553430775.8,286046999.2,N
1553430795.7,286046996.7,N
1553430815.5,286046997.9,N
1553430835.4,286046995.2,Y
1553430855.2,286046996.2,P
1553430875.0,286046997.8,N
1553430875.9,286046997.8,N
1553430895.8,286046997.2,N
1553430915.6,286046997.3,N
1553430935.4,286046997.5,N
1553430955.3,286046995.7,Y
1553430975.1,286046999.1,P
1553430995.9,286046997.8,N
1553431015.7,286046996.9,P
1553431035.5,286046996.6,Y
1553431055.4,286046998.3,P
1553431075.2,286046998.5,P
1553431095.0,286046998.5,P
1553431096.0,286046998.5,Y
1553431115.8,286046999.9,P
1553431135.6,286046998.5,N
1553431155.5,286046999.8,N
1553431175.3,286047002.6,Y
1553431195.2,286047001.9,P
1553431215.9,286047002.5,N
1553431235.7,286047004.4,N
1553431255.6,286047004.4,N
1553431275.4,286047001.6,N
1553431295.2,286047002.0,N
1553431315.1,286046999.8,N
1553431316.0,286046999.8,N
1553431335.8,286046998.1,N
1553431355.6,286046999.5,N
1553431375.5,286046997.3,N
1553431395.3,286046999.5,N
1553431415.2,286046996.9,N
1553431435.9,286046997.3,N
1553431455.7,286046999.2,N
1553431475.6,286046998.9,N
1553431495.4,286046999.6,N
1553431515.2,286046999.6,N
1553431535.1,286046998.5,N
1553431536.0,286046998.5,N
1553431555.8,286047000.6,N
1553431575.7,286046998.3,N
1553431595.5,286046996.5,N
1553431615.3,286046996.5,N
1553431635.3,286046997.8,N
1553431655.1,286046995.5,N
1553431675.9,286046995.5,N
1553431695.7,286046996.2,N
1553431715.5,286046996.0,N
1553431735.4,286046993.4,N
1553431755.2,286046993.6,N
1553431775.0,286046993.5,N
1553431775.9,286046993.5,N
1553431795.8,286046995.5,N
1553431815.6,286046993.4,N
1553431835.4,286046993.7,N
1553431855.3,286046996.3,N
1553431875.1,286046993.6,N
1553431895.9,286046994.4,N
1553431915.7,286046993.9,N
1553431935.5,286046993.8,N
1553431955.4,286046995.5,N
1553431975.2,286046995.1,N
1553431995.0,286046997.6,N
1553431995.9,286046997.6,N
1553432015.8,286046994.9,N
1553432035.6,286046997.8,N
1553432055.5,286046995.5,N
1553432075.3,286046995.7,N
1553432095.1,286046993.6,Y
1553432115.9,286046999.4,P
1553432135.7,286046994.9,N
1553432155.6,286046996.8,N
1553432175.4,286046997.2,N
1553432195.2,286046996.8,N
1553432215.1,286046995.3,Y
1553432216.0,286046995.3,P
1553432235.8,286046999.2,N
1553432255.6,286046998.3,N
1553432275.5,286046999.9,N
1553432295.3,286047001.0,N
1553432315.2,286047000.3,N
1553432335.9,286047000.0,N
1553432355.7,286047002.4,N
1553432375.6,286047004.1,N
1553432395.4,286047002.1,N
